Location: *
(6.0000°S, 32.3997°W)
Time: 16:05:57
(UTC+00:00)

Lacrosse 5 - Pass Details

Date: 01 April 2020
Orbit: 715 x 724 km, 57.0° (Epoch: 21 May)

Event Time Altitude Azimuth Distance (km) Brightness Sun altitude
Rises 21:23:12 0° 301° (WNW) 3,121 6.3 -17.9°
Reaches altitude 10° 21:26:10 10° 284° (WNW) 2,205 5.6 -18.6°
Maximum altitude 21:29:49 20° 238° (WSW) 1,644 4.4 -19.5°
Drops below altitude 10° 21:33:29 10° 191° (S) 2,214 4.5 -20.4°
Sets 21:36:29 0° 174° (S) 3,138 5.1 -21.2°
